Time,TemperatureF,DewpointF,PressureIn,WindDirection,WindDirectionDegrees,WindSpeedMPH,WindSpeedGustMPH,Humidity,HourlyPrecipIn,Conditions,Clouds,dailyrainin,SolarRadiationWatts/m^2,SoftwareType,DateUTC
2013-10-30 00:00:00,77.1,66.2,30.16,NE,52,6.0,10.0,69,0.00,,FEW021,0.00,0.00,VWS V14.01,2013-10-30 04:00:00,
2013-10-30 00:01:00,77.1,66.2,30.16,ENE,69,2.0,10.0,69,0.00,,FEW021,0.00,0.00,VWS V14.01,2013-10-30 04:01:00,
2013-10-30 00:02:00,77.1,66.2,30.16,ENE,66,5.0,10.0,69,0.00,,FEW021,0.00,0.00,VWS V14.01,2013-10-30 04:02:00,
2013-10-30 00:07:00,77.1,66.2,30.16,NE,46,3.0,6.0,69,0.00,,FEW021,0.00,0.00,VWS V14.01,2013-10-30 04:07:00,
2013-10-30 00:12:00,77.1,66.2,30.16,NE,42,4.0,9.0,69,0.00,,FEW021,0.00,0.00,VWS V14.01,2013-10-30 04:12:00,
2013-10-30 00:17:00,77.0,66.1,30.15,NE,40,7.0,11.0,69,0.00,,FEW021,0.00,0.00,VWS V14.01,2013-10-30 04:17:00,
2013-10-30 00:22:00,77.0,66.1,30.15,NE,36,7.0,8.0,69,0.00,,FEW021,0.00,0.00,VWS V14.01,2013-10-30 04:22:00,
2013-10-30 00:27:00,77.1,66.6,30.15,NE,43,6.0,9.0,70,0.00,,FEW021,0.00,0.00,VWS V14.01,2013-10-30 04:27:00,
2013-10-30 00:32:00,77.1,66.6,30.15,ENE,67,4.0,7.0,70,0.00,,FEW021,0.00,0.00,VWS V14.01,2013-10-30 04:32:00,
2013-10-30 00:37:00,77.0,66.5,30.15,NE,45,5.0,12.0,70,0.00,,FEW021,0.00,0.00,VWS V14.01,2013-10-30 04:37:00,
2013-10-30 00:42:00,76.9,66.0,30.15,NNE,31,3.0,10.0,69,0.00,,FEW021,0.00,0.00,VWS V14.01,2013-10-30 04:42:00,
2013-10-30 00:47:00,76.9,66.0,30.15,NE,42,5.0,10.0,69,0.00,,FEW021,0.00,0.00,VWS V14.01,2013-10-30 04:47:00,
2013-10-30 00:52:00,77.0,65.6,30.14,NE,46,6.0,8.0,68,0.00,,FEW021,0.00,0.00,VWS V14.01,2013-10-30 04:52:00,
2013-10-30 00:57:00,77.1,65.7,30.15,NE,42,7.0,9.0,68,0.00,,FEW021,0.00,0.00,VWS V14.01,2013-10-30 04:57:00,
2013-10-30 01:02:00,77.2,65.8,30.15,NNE,32,5.0,8.0,68,0.00,,FEW021,0.00,0.00,VWS V14.01,2013-10-30 05:02:00,
2013-10-30 01:07:00,77.3,66.3,30.15,NE,52,4.0,11.0,69,0.00,,FEW021,0.00,0.00,VWS V14.01,2013-10-30 05:07:00,
2013-10-30 01:12:00,77.3,66.3,30.14,NE,46,5.0,8.0,69,0.00,,FEW021,0.00,0.00,VWS V14.01,2013-10-30 05:12:00,
2013-10-30 01:17:00,77.2,66.2,30.14,East,83,7.0,8.0,69,0.00,,FEW021,0.00,0.00,VWS V14.01,2013-10-30 05:17:00,
2013-10-30 01:22:00,77.2,66.2,30.14,NE,37,3.0,10.0,69,0.00,,FEW021,0.00,0.00,VWS V14.01,2013-10-30 05:22:00,
2013-10-30 01:27:00,77.2,66.7,30.14,NE,44,1.0,11.0,70,0.00,,FEW021,0.00,0.00,VWS V14.01,2013-10-30 05:27:00,
2013-10-30 01:32:00,77.1,66.6,30.14,NE,37,5.0,7.0,70,0.00,,FEW021,0.00,0.00,VWS V14.01,2013-10-30 05:32:00,
2013-10-30 01:37:00,77.1,66.6,30.14,NE,38,4.0,8.0,70,0.00,,FEW021,0.00,0.00,VWS V14.01,2013-10-30 05:37:00,
2013-10-30 01:42:00,77.0,66.5,30.13,NE,39,2.0,7.0,70,0.00,,FEW021,0.00,0.00,VWS V14.01,2013-10-30 05:42:00,
2013-10-30 01:47:00,76.9,66.8,30.13,East,90,5.0,8.0,71,0.00,,FEW021,0.00,0.00,VWS V14.01,2013-10-30 05:47:00,
2013-10-30 01:52:00,76.9,66.8,30.13,NE,40,1.0,4.0,71,0.00,,FEW021,0.00,0.00,VWS V14.01,2013-10-30 05:52:00,
2013-10-30 01:56:00,76.9,67.2,30.13,NE,34,6.0,9.0,72,0.00,,FEW021,0.00,0.00,VWS V14.01,2013-10-30 05:56:00,
2013-10-30 02:01:00,77.0,67.3,30.13,NE,53,2.0,8.0,72,0.00,,FEW021,0.00,0.00,VWS V14.01,2013-10-30 06:01:00,
2013-10-30 02:06:00,77.0,67.3,30.13,East,90,3.0,5.0,72,0.00,,FEW021,0.00,0.00,VWS V14.01,2013-10-30 06:06:00,
2013-10-30 02:11:00,76.9,67.2,30.13,NE,44,3.0,5.0,72,0.00,,FEW021,0.00,0.00,VWS V14.01,2013-10-30 06:11:00,
2013-10-30 02:16:00,76.7,67.4,30.13,NE,41,3.0,10.0,73,0.00,,FEW021,0.00,0.00,VWS V14.01,2013-10-30 06:16:00,
2013-10-30 02:21:00,76.6,67.3,30.13,NE,52,4.0,6.0,73,0.00,,FEW021,0.00,0.00,VWS V14.01,2013-10-30 06:21:00,
2013-10-30 02:26:00,76.6,66.9,30.12,NE,45,2.0,8.0,72,0.00,,FEW021,0.00,0.00,VWS V14.01,2013-10-30 06:26:00,
2013-10-30 02:31:00,76.6,67.3,30.12,NE,53,2.0,6.0,73,0.00,,FEW021,0.00,0.00,VWS V14.01,2013-10-30 06:31:00,
2013-10-30 02:36:00,76.6,67.3,30.12,NE,49,4.0,7.0,73,0.00,,FEW021,0.00,0.00,VWS V14.01,2013-10-30 06:36:00,
2013-10-30 02:41:00,76.5,67.2,30.12,NE,53,2.0,7.0,73,0.00,,FEW021,0.00,0.00,VWS V14.01,2013-10-30 06:41:00,
2013-10-30 02:46:00,76.5,67.2,30.13,ENE,70,1.0,7.0,73,0.00,,FEW021,0.00,0.00,VWS V14.01,2013-10-30 06:46:00,
2013-10-30 02:51:00,76.4,67.1,30.12,NE,49,2.0,5.0,73,0.00,,FEW021,0.00,0.00,VWS V14.01,2013-10-30 06:51:00,
2013-10-30 02:56:00,76.3,67.4,30.12,NE,46,2.0,7.0,74,0.00,,FEW021,0.00,0.00,VWS V14.01,2013-10-30 06:56:00,
2013-10-30 03:01:00,76.3,67.4,30.12,NE,49,2.0,3.0,74,0.00,,FEW021,0.00,0.00,VWS V14.01,2013-10-30 07:01:00,
2013-10-30 03:06:00,76.3,67.4,30.12,NE,36,3.0,5.0,74,0.00,,FEW021,0.00,0.00,VWS V14.01,2013-10-30 07:06:00,
2013-10-30 03:12:00,76.3,67.4,30.12,NE,48,4.0,10.0,74,0.00,,FEW021,0.00,0.00,VWS V14.01,2013-10-30 07:12:00,
2013-10-30 03:17:00,76.4,67.5,30.12,NE,39,2.0,7.0,74,0.00,,FEW021,0.00,0.00,VWS V14.01,2013-10-30 07:17:00,
2013-10-30 03:22:00,76.4,67.1,30.12,NNE,32,3.0,5.0,73,0.00,,FEW021,0.00,0.00,VWS V14.01,2013-10-30 07:22:00,
2013-10-30 03:27:00,76.4,67.1,30.12,NE,40,3.0,4.0,73,0.00,,FEW021,0.00,0.00,VWS V14.01,2013-10-30 07:27:00,
2013-10-30 03:32:00,76.4,67.1,30.12,NE,42,4.0,6.0,73,0.00,,FEW021,0.00,0.00,VWS V14.01,2013-10-30 07:32:00,
2013-10-30 03:37:00,76.4,67.5,30.11,NE,37,3.0,6.0,74,0.00,,FEW021,0.00,0.00,VWS V14.01,2013-10-30 07:37:00,
2013-10-30 03:41:00,76.3,67.4,30.11,NE,34,2.0,6.0,74,0.00,,FEW021,0.00,0.00,VWS V14.01,2013-10-30 07:41:00,
2013-10-30 03:46:00,76.3,67.4,30.11,NE,36,5.0,6.0,74,0.00,,FEW021,0.00,0.00,VWS V14.01,2013-10-30 07:46:00,
2013-10-30 03:51:00,76.2,67.3,30.11,NE,39,5.0,7.0,74,0.00,,FEW021,0.00,0.00,VWS V14.01,2013-10-30 07:51:00,
2013-10-30 03:56:00,76.2,67.3,30.11,NE,36,3.0,7.0,74,0.00,,FEW021,0.00,0.00,VWS V14.01,2013-10-30 07:56:00,
2013-10-30 04:01:00,76.2,67.3,30.11,NNE,31,2.0,5.0,74,0.00,,FEW021,0.00,0.00,VWS V14.01,2013-10-30 08:01:00,
2013-10-30 04:06:00,76.2,67.3,30.11,NE,51,4.0,9.0,74,0.00,,FEW021,0.00,0.00,VWS V14.01,2013-10-30 08:06:00,
2013-10-30 04:11:00,76.2,67.3,30.11,NE,46,2.0,6.0,74,0.00,,FEW021,0.00,0.00,VWS V14.01,2013-10-30 08:11:00,
2013-10-30 04:16:00,76.1,67.2,30.11,NNE,32,4.0,5.0,74,0.00,,FEW021,0.00,0.00,VWS V14.01,2013-10-30 08:16:00,
2013-10-30 04:21:00,76.1,67.6,30.11,NE,43,2.0,5.0,75,0.00,,FEW021,0.00,0.00,VWS V14.01,2013-10-30 08:21:00,
2013-10-30 04:26:00,76.0,67.1,30.11,ENE,63,3.0,7.0,74,0.00,,FEW021,0.00,0.00,VWS V14.01,2013-10-30 08:26:00,
2013-10-30 04:31:00,75.9,67.4,30.11,NE,49,3.0,5.0,75,0.00,,FEW021,0.00,0.00,VWS V14.01,2013-10-30 08:31:00,
2013-10-30 04:36:00,75.9,67.4,30.11,NNE,33,4.0,8.0,75,0.00,,FEW021,0.00,0.00,VWS V14.01,2013-10-30 08:36:00,
2013-10-30 04:41:00,75.9,67.0,30.11,NE,40,1.0,4.0,74,0.00,,FEW021,0.00,0.00,VWS V14.01,2013-10-30 08:41:00,
2013-10-30 04:46:00,75.8,67.3,30.11,NE,43,3.0,5.0,75,0.00,,FEW021,0.00,0.00,VWS V14.01,2013-10-30 08:46:00,
2013-10-30 04:51:00,75.7,67.2,30.11,NNE,30,3.0,4.0,75,0.00,,FEW021,0.00,0.00,VWS V14.01,2013-10-30 08:51:00,
2013-10-30 04:56:00,75.7,67.2,30.11,NE,46,3.0,6.0,75,0.00,,FEW021,0.00,0.00,VWS V14.01,2013-10-30 08:56:00,
2013-10-30 05:01:00,75.7,67.2,30.11,NE,39,4.0,4.0,75,0.00,,FEW021,0.00,0.00,VWS V14.01,2013-10-30 09:01:00,
2013-10-30 05:06:00,75.7,67.2,30.11,NE,38,4.0,7.0,75,0.00,,FEW021,0.00,0.00,VWS V14.01,2013-10-30 09:06:00,
2013-10-30 05:11:00,75.7,67.2,30.11,NE,41,3.0,6.0,75,0.00,,FEW021,0.00,0.00,VWS V14.01,2013-10-30 09:11:00,
2013-10-30 05:16:00,75.7,66.8,30.11,NE,41,5.0,7.0,74,0.00,,FEW021,0.00,0.00,VWS V14.01,2013-10-30 09:16:00,
2013-10-30 05:21:00,75.7,67.2,30.11,NE,46,3.0,7.0,75,0.00,,FEW021,0.00,0.00,VWS V14.01,2013-10-30 09:21:00,
2013-10-30 05:26:00,75.6,67.1,30.11,NNE,31,3.0,3.0,75,0.00,,FEW021,0.00,0.00,VWS V14.01,2013-10-30 09:26:00,
2013-10-30 05:31:00,75.6,67.1,30.11,NE,50,2.0,6.0,75,0.00,,FEW021,0.00,0.00,VWS V14.01,2013-10-30 09:31:00,
2013-10-30 05:36:00,75.5,67.0,30.11,NE,35,6.0,7.0,75,0.00,,FEW021,0.00,0.00,VWS V14.01,2013-10-30 09:36:00,
2013-10-30 05:41:00,75.5,67.0,30.11,NE,47,4.0,5.0,75,0.00,,FEW021,0.00,0.00,VWS V14.01,2013-10-30 09:41:00,
2013-10-30 05:46:00,75.4,66.9,30.12,NE,42,3.0,4.0,75,0.00,,FEW021,0.00,0.00,VWS V14.01,2013-10-30 09:46:00,
2013-10-30 05:51:00,75.4,66.9,30.12,NE,44,3.0,4.0,75,0.00,,FEW021,0.00,0.00,VWS V14.01,2013-10-30 09:51:00,
2013-10-30 05:56:00,75.3,66.8,30.12,NE,40,3.0,4.0,75,0.00,,FEW021,0.00,0.00,VWS V14.01,2013-10-30 09:56:00,
2013-10-30 06:01:00,75.2,67.1,30.12,NE,40,3.0,3.0,76,0.00,,FEW021,0.00,0.00,VWS V14.01,2013-10-30 10:01:00,
2013-10-30 06:06:00,75.1,67.0,30.12,NE,36,2.0,4.0,76,0.00,,FEW021,0.00,0.00,VWS V14.01,2013-10-30 10:06:00,
2013-10-30 06:11:00,75.0,66.9,30.13,NE,39,3.0,4.0,76,0.00,,FEW021,0.00,0.00,VWS V14.01,2013-10-30 10:11:00,
2013-10-30 06:16:00,74.9,66.8,30.12,NE,43,2.0,3.0,76,0.00,,FEW021,0.00,0.00,VWS V14.01,2013-10-30 10:16:00,
2013-10-30 06:21:00,74.8,67.1,30.13,NNE,27,2.0,4.0,77,0.00,,FEW021,0.00,0.00,VWS V14.01,2013-10-30 10:21:00,
2013-10-30 06:26:00,74.7,67.0,30.13,NE,43,2.0,4.0,77,0.00,,FEW021,0.00,0.00,VWS V14.01,2013-10-30 10:26:00,
2013-10-30 06:31:00,74.7,67.0,30.13,NE,36,1.0,4.0,77,0.00,,FEW021,0.00,0.00,VWS V14.01,2013-10-30 10:31:00,
2013-10-30 06:36:00,74.6,66.9,30.13,NE,34,1.0,4.0,77,0.00,,FEW021,0.00,0.00,VWS V14.01,2013-10-30 10:36:00,
2013-10-30 06:41:00,74.6,66.9,30.13,NE,46,1.0,4.0,77,0.00,,FEW021,0.00,0.00,VWS V14.01,2013-10-30 10:41:00,
2013-10-30 06:46:00,74.4,66.7,30.13,NE,45,2.0,2.0,77,0.00,,FEW021,0.00,0.00,VWS V14.01,2013-10-30 10:46:00,
2013-10-30 06:51:00,74.2,66.5,30.13,NE,40,3.0,4.0,77,0.00,,FEW021,0.00,0.00,VWS V14.01,2013-10-30 10:51:00,
2013-10-30 06:56:00,74.1,66.4,30.13,NNE,33,1.0,3.0,77,0.00,,FEW021,0.00,0.00,VWS V14.01,2013-10-30 10:56:00,
2013-10-30 07:01:00,74.0,66.7,30.14,NE,34,2.0,4.0,78,0.00,,FEW021,0.00,0.00,VWS V14.01,2013-10-30 11:01:00,
2013-10-30 07:06:00,74.0,66.3,30.14,NE,34,2.0,3.0,77,0.00,,FEW021,0.00,0.00,VWS V14.01,2013-10-30 11:06:00,
2013-10-30 07:11:00,74.0,66.3,30.14,NE,42,1.0,3.0,77,0.00,,FEW021,0.00,0.00,VWS V14.01,2013-10-30 11:11:00,
2013-10-30 07:16:00,73.9,66.6,30.14,NE,49,1.0,3.0,78,0.00,,FEW021,0.00,0.00,VWS V14.01,2013-10-30 11:16:00,
2013-10-30 07:21:00,73.8,66.5,30.14,NE,34,2.0,5.0,78,0.00,,FEW021,0.00,0.00,VWS V14.01,2013-10-30 11:21:00,
2013-10-30 07:26:00,73.8,66.5,30.15,NE,34,1.0,3.0,78,0.00,,FEW021,0.00,0.00,VWS V14.01,2013-10-30 11:26:00,
2013-10-30 07:31:00,73.7,66.8,30.15,NE,42,1.0,3.0,79,0.00,,FEW021,0.00,5.00,VWS V14.01,2013-10-30 11:31:00,
2013-10-30 07:36:00,73.8,66.5,30.15,NE,43,3.0,5.0,78,0.00,,FEW021,0.00,9.00,VWS V14.01,2013-10-30 11:36:00,
2013-10-30 07:41:00,73.9,66.6,30.15,NE,46,3.0,5.0,78,0.00,,FEW021,0.00,11.00,VWS V14.01,2013-10-30 11:41:00,
2013-10-30 07:46:00,74.0,66.3,30.15,NE,40,3.0,4.0,77,0.00,,FEW021,0.00,14.00,VWS V14.01,2013-10-30 11:46:00,
2013-10-30 07:51:00,74.1,66.4,30.14,NE,36,3.0,5.0,77,0.00,,FEW021,0.00,18.00,VWS V14.01,2013-10-30 11:51:00,
2013-10-30 07:56:00,74.2,66.2,30.15,NE,40,4.0,5.0,76,0.00,,FEW021,0.00,19.00,VWS V14.01,2013-10-30 11:56:00,
2013-10-30 08:01:00,74.4,66.3,30.15,NE,43,3.0,5.0,76,0.00,,FEW021,0.00,25.00,VWS V14.01,2013-10-30 12:01:00,
2013-10-30 08:06:00,74.5,66.4,30.15,NE,38,3.0,4.0,76,0.00,,FEW021,0.00,30.00,VWS V14.01,2013-10-30 12:06:00,
2013-10-30 08:11:00,74.6,66.5,30.16,NE,36,2.0,4.0,76,0.00,,FEW021,0.00,42.00,VWS V14.01,2013-10-30 12:11:00,
2013-10-30 08:16:00,74.7,66.6,30.16,NE,46,1.0,3.0,76,0.00,,FEW021,0.00,30.00,VWS V14.01,2013-10-30 12:16:00,
2013-10-30 08:21:00,74.7,66.6,30.16,NE,44,4.0,5.0,76,0.00,,FEW021,0.00,84.00,VWS V14.01,2013-10-30 12:21:00,
2013-10-30 08:26:00,75.1,67.0,30.16,NE,38,3.0,6.0,76,0.00,,FEW021,0.00,49.00,VWS V14.01,2013-10-30 12:26:00,
2013-10-30 08:31:00,75.4,67.3,30.16,NE,34,3.0,5.0,76,0.00,,FEW021,0.00,67.00,VWS V14.01,2013-10-30 12:31:00,
2013-10-30 08:36:00,75.8,67.3,30.16,ENE,67,2.0,5.0,75,0.00,,FEW021,0.00,155.00,VWS V14.01,2013-10-30 12:36:00,
2013-10-30 08:41:00,76.3,67.8,30.16,NE,39,3.0,4.0,75,0.00,,FEW021,0.00,142.00,VWS V14.01,2013-10-30 12:41:00,
2013-10-30 08:46:00,76.8,67.9,30.16,NNE,30,2.0,5.0,74,0.00,,FEW021,0.00,190.00,VWS V14.01,2013-10-30 12:46:00,
2013-10-30 08:51:00,77.2,67.5,30.16,NE,42,3.0,9.0,72,0.00,,FEW021,0.00,90.00,VWS V14.01,2013-10-30 12:51:00,
2013-10-30 08:56:00,77.5,67.8,30.16,NE,44,4.0,7.0,72,0.00,,FEW021,0.00,230.00,VWS V14.01,2013-10-30 12:56:00,
2013-10-30 09:01:00,78.0,67.8,30.16,NE,39,4.0,8.0,71,0.00,,FEW021,0.00,237.00,VWS V14.01,2013-10-30 13:01:00,
2013-10-30 09:06:00,78.5,67.5,30.16,East,87,3.0,10.0,69,0.00,,FEW021,0.00,257.00,VWS V14.01,2013-10-30 13:06:00,
2013-10-30 09:11:00,78.6,67.6,30.16,ENE,75,3.0,8.0,69,0.00,,FEW021,0.00,276.00,VWS V14.01,2013-10-30 13:11:00,
2013-10-30 09:16:00,79.0,67.6,30.16,NE,41,3.0,8.0,68,0.00,,FEW021,0.00,295.00,VWS V14.01,2013-10-30 13:16:00,
2013-10-30 09:21:00,79.4,67.9,30.16,NE,44,3.0,8.0,68,0.00,,FEW021,0.00,62.00,VWS V14.01,2013-10-30 13:21:00,
2013-10-30 09:26:00,79.6,68.1,30.16,NE,36,5.0,7.0,68,0.00,,FEW021,0.00,345.00,VWS V14.01,2013-10-30 13:26:00,
2013-10-30 09:31:00,79.8,67.9,30.16,NE,42,6.0,10.0,67,0.00,,FEW021,0.00,174.00,VWS V14.01,2013-10-30 13:31:00,
2013-10-30 09:36:00,80.0,68.5,30.17,NE,44,2.0,9.0,68,0.00,,FEW021,0.00,374.00,VWS V14.01,2013-10-30 13:36:00,
2013-10-30 09:41:00,80.3,68.3,30.17,East,87,2.0,13.0,67,0.00,,FEW021,0.00,397.00,VWS V14.01,2013-10-30 13:41:00,
2013-10-30 09:46:00,80.4,68.4,30.17,East,94,7.0,13.0,67,0.00,,FEW021,0.00,394.00,VWS V14.01,2013-10-30 13:46:00,
2013-10-30 09:51:00,80.5,68.5,30.17,NE,36,5.0,10.0,67,0.00,,FEW021,0.00,408.00,VWS V14.01,2013-10-30 13:51:00,
2013-10-30 09:56:00,80.6,68.6,30.17,ENE,74,9.0,9.0,67,0.00,,FEW021,0.00,439.00,VWS V14.01,2013-10-30 13:56:00,
2013-10-30 10:01:00,80.8,68.4,30.17,NE,38,8.0,17.0,66,0.00,,FEW021,0.00,461.00,VWS V14.01,2013-10-30 14:01:00,
2013-10-30 10:06:00,81.1,68.7,30.17,NE,39,11.0,11.0,66,0.00,,FEW021,0.00,475.00,VWS V14.01,2013-10-30 14:06:00,
2013-10-30 10:11:00,81.4,68.1,30.17,ENE,69,10.0,11.0,64,0.00,,FEW021,0.00,501.00,VWS V14.01,2013-10-30 14:11:00,
2013-10-30 10:16:00,81.4,68.5,30.17,ENE,63,9.0,9.0,65,0.00,,FEW021,0.00,492.00,VWS V14.01,2013-10-30 14:16:00,
2013-10-30 10:21:00,81.1,68.2,30.17,ENE,67,8.0,11.0,65,0.00,,FEW021,0.00,555.00,VWS V14.01,2013-10-30 14:21:00,
2013-10-30 10:26:00,81.5,68.2,30.17,ENE,69,5.0,14.0,64,0.00,,FEW021,0.00,561.00,VWS V14.01,2013-10-30 14:26:00,
2013-10-30 10:31:00,81.9,68.1,30.17,East,88,2.0,15.0,63,0.00,,FEW021,0.00,585.00,VWS V14.01,2013-10-30 14:31:00,
2013-10-30 10:36:00,82.2,68.4,30.17,ESE,114,5.0,13.0,63,0.00,,FEW021,0.00,617.00,VWS V14.01,2013-10-30 14:36:00,
2013-10-30 10:41:00,82.1,67.8,30.18,ENE,67,9.0,12.0,62,0.00,,FEW021,0.00,596.00,VWS V14.01,2013-10-30 14:41:00,
2013-10-30 10:46:00,81.9,68.1,30.18,ENE,73,7.0,9.0,63,0.00,,FEW021,0.00,621.00,VWS V14.01,2013-10-30 14:46:00,
2013-10-30 10:51:00,82.1,68.3,30.18,NE,51,3.0,13.0,63,0.00,,FEW021,0.00,671.00,VWS V14.01,2013-10-30 14:51:00,
2013-10-30 10:56:00,82.2,68.4,30.18,ENE,67,3.0,14.0,63,0.00,,FEW021,0.00,167.00,VWS V14.01,2013-10-30 14:56:00,
2013-10-30 11:01:00,82.4,68.6,30.17,NE,42,12.0,18.0,63,0.00,,FEW021,0.00,705.00,VWS V14.01,2013-10-30 15:01:00,
2013-10-30 11:06:00,82.5,69.1,30.17,ENE,69,7.0,12.0,64,0.00,,FEW021,0.00,652.00,VWS V14.01,2013-10-30 15:06:00,
2013-10-30 11:11:00,82.9,68.6,30.17,East,86,8.0,11.0,62,0.00,,FEW021,0.00,745.00,VWS V14.01,2013-10-30 15:11:00,
2013-10-30 11:16:00,83.6,68.3,30.17,ENE,67,11.0,14.0,60,0.00,,FEW021,0.00,722.00,VWS V14.01,2013-10-30 15:16:00,
2013-10-30 11:21:00,83.7,68.8,30.17,NNE,26,12.0,12.0,61,0.00,,FEW021,0.00,756.00,VWS V14.01,2013-10-30 15:21:00,
2013-10-30 11:26:00,83.3,67.5,30.17,NE,51,9.0,17.0,59,0.00,,FEW021,0.00,664.00,VWS V14.01,2013-10-30 15:26:00,
2013-10-30 11:31:00,83.0,67.7,30.17,NE,40,5.0,18.0,60,0.00,,FEW021,0.00,566.00,VWS V14.01,2013-10-30 15:31:00,
2013-10-30 11:36:00,82.5,67.7,30.18,ENE,63,12.0,16.0,61,0.00,,FEW021,0.00,176.00,VWS V14.01,2013-10-30 15:36:00,
2013-10-30 11:41:00,82.1,68.3,30.18,NE,36,7.0,14.0,63,0.00,,FEW021,0.00,183.00,VWS V14.01,2013-10-30 15:41:00,
2013-10-30 11:46:00,82.4,68.1,30.18,NE,37,5.0,16.0,62,0.00,,FEW021,0.00,756.00,VWS V14.01,2013-10-30 15:46:00,
2013-10-30 11:51:00,83.2,68.4,30.18,NE,42,10.0,13.0,61,0.00,,FEW021,0.00,206.00,VWS V14.01,2013-10-30 15:51:00,
2013-10-30 11:56:00,83.5,68.2,30.17,NE,37,4.0,16.0,60,0.00,,FEW021,0.00,823.00,VWS V14.01,2013-10-30 15:56:00,
2013-10-30 12:01:00,83.7,67.9,30.17,NNE,29,7.0,18.0,59,0.00,,FEW021,0.00,236.00,VWS V14.01,2013-10-30 16:01:00,
2013-10-30 12:06:00,82.8,67.5,30.17,ENE,71,8.0,14.0,60,0.00,,FEW021,0.00,246.00,VWS V14.01,2013-10-30 16:06:00,
2013-10-30 12:11:00,82.8,68.0,30.17,NE,44,7.0,13.0,61,0.00,,FEW021,0.00,844.00,VWS V14.01,2013-10-30 16:11:00,
2013-10-30 12:16:00,83.1,68.7,30.17,ENE,70,7.0,12.0,62,0.00,,FEW021,0.00,809.00,VWS V14.01,2013-10-30 16:16:00,
2013-10-30 12:21:00,83.9,68.5,30.17,NE,44,7.0,14.0,60,0.00,,FEW021,0.00,879.00,VWS V14.01,2013-10-30 16:21:00,
2013-10-30 12:26:00,84.4,68.0,30.17,NE,36,6.0,15.0,58,0.00,,FEW021,0.00,856.00,VWS V14.01,2013-10-30 16:26:00,
2013-10-30 12:31:00,84.6,67.7,30.17,ESE,118,3.0,18.0,57,0.00,,FEW021,0.00,826.00,VWS V14.01,2013-10-30 16:31:00,
2013-10-30 12:36:00,84.3,68.9,30.17,NE,48,4.0,13.0,60,0.00,,FEW021,0.00,802.00,VWS V14.01,2013-10-30 16:36:00,
2013-10-30 12:41:00,83.9,67.6,30.17,NE,40,9.0,17.0,58,0.00,,FEW021,0.00,831.00,VWS V14.01,2013-10-30 16:41:00,
2013-10-30 12:46:00,83.8,68.4,30.17,NNE,28,12.0,13.0,60,0.00,,FEW021,0.00,854.00,VWS V14.01,2013-10-30 16:46:00,
2013-10-30 12:51:00,83.7,67.9,30.16,NE,36,6.0,13.0,59,0.00,,FEW021,0.00,904.00,VWS V14.01,2013-10-30 16:51:00,
2013-10-30 12:56:00,83.2,67.9,30.16,NNE,28,10.0,13.0,60,0.00,,FEW021,0.00,174.00,VWS V14.01,2013-10-30 16:56:00,
2013-10-30 13:01:00,83.8,68.4,30.16,SE,124,8.0,13.0,60,0.00,,FEW021,0.00,907.00,VWS V14.01,2013-10-30 17:01:00,
2013-10-30 13:06:00,83.9,68.1,30.15,NE,36,8.0,15.0,59,0.00,,FEW021,0.00,893.00,VWS V14.01,2013-10-30 17:06:00,
2013-10-30 13:11:00,83.2,67.9,30.15,NE,45,5.0,14.0,60,0.00,,FEW021,0.00,912.00,VWS V14.01,2013-10-30 17:11:00,
2013-10-30 13:16:00,83.8,68.0,30.15,NE,39,13.0,13.0,59,0.00,,FEW021,0.00,884.00,VWS V14.01,2013-10-30 17:16:00,
2013-10-30 13:21:00,84.2,68.3,30.15,ENE,67,5.0,12.0,59,0.00,,FEW021,0.00,861.00,VWS V14.01,2013-10-30 17:21:00,
2013-10-30 13:26:00,83.8,65.4,30.15,ENE,67,9.0,17.0,54,0.00,,FEW021,0.00,160.00,VWS V14.01,2013-10-30 17:26:00,
2013-10-30 13:31:00,83.1,66.3,30.14,NNE,33,5.0,15.0,57,0.00,,FEW021,0.00,186.00,VWS V14.01,2013-10-30 17:31:00,
2013-10-30 13:36:00,82.9,65.1,30.14,NE,34,9.0,18.0,55,0.00,,FEW021,0.00,612.00,VWS V14.01,2013-10-30 17:36:00,
2013-10-30 13:41:00,82.9,67.1,30.13,NE,51,10.0,16.0,59,0.00,,FEW021,0.00,902.00,VWS V14.01,2013-10-30 17:41:00,
2013-10-30 13:46:00,83.2,66.9,30.13,NNE,30,6.0,17.0,58,0.00,,FEW021,0.00,155.00,VWS V14.01,2013-10-30 17:46:00,
2013-10-30 13:51:00,83.3,67.0,30.12,NE,49,6.0,12.0,58,0.00,,FEW021,0.00,835.00,VWS V14.01,2013-10-30 17:51:00,
2013-10-30 13:56:00,83.5,66.7,30.12,ENE,69,10.0,18.0,57,0.00,,FEW021,0.00,181.00,VWS V14.01,2013-10-30 17:56:00,
2013-10-30 14:01:00,83.5,67.2,30.11,NE,39,9.0,16.0,58,0.00,,FEW021,0.00,896.00,VWS V14.01,2013-10-30 18:01:00,
2013-10-30 14:06:00,83.8,68.0,30.11,NNE,29,9.0,16.0,59,0.00,,FEW021,0.00,220.00,VWS V14.01,2013-10-30 18:06:00,
2013-10-30 14:11:00,83.1,67.8,30.11,East,92,3.0,19.0,60,0.00,,FEW021,0.00,838.00,VWS V14.01,2013-10-30 18:11:00,
2013-10-30 14:16:00,83.4,68.1,30.11,NNE,24,10.0,15.0,60,0.00,,FEW021,0.00,865.00,VWS V14.01,2013-10-30 18:16:00,
2013-10-30 14:21:00,83.4,67.6,30.10,NNE,33,8.0,13.0,59,0.00,,FEW021,0.00,812.00,VWS V14.01,2013-10-30 18:21:00,
2013-10-30 14:26:00,84.0,68.6,30.10,NE,37,11.0,14.0,60,0.00,,FEW021,0.00,874.00,VWS V14.01,2013-10-30 18:26:00,
2013-10-30 14:31:00,84.4,69.0,30.10,ENE,66,7.0,16.0,60,0.00,,FEW021,0.00,847.00,VWS V14.01,2013-10-30 18:31:00,
2013-10-30 14:36:00,83.9,68.5,30.10,NNE,33,5.0,13.0,60,0.00,,FEW021,0.00,826.00,VWS V14.01,2013-10-30 18:36:00,
2013-10-30 14:41:00,83.4,68.1,30.10,NE,38,4.0,12.0,60,0.00,,FEW021,0.00,826.00,VWS V14.01,2013-10-30 18:41:00,
2013-10-30 14:46:00,83.8,68.9,30.10,NE,49,5.0,15.0,61,0.00,,FEW021,0.00,814.00,VWS V14.01,2013-10-30 18:46:00,
2013-10-30 14:51:00,84.1,68.2,30.10,NNE,33,8.0,16.0,59,0.00,,FEW021,0.00,828.00,VWS V14.01,2013-10-30 18:51:00,
2013-10-30 14:56:00,84.1,67.2,30.09,SE,132,9.0,12.0,57,0.00,,FEW021,0.00,789.00,VWS V14.01,2013-10-30 18:56:00,
2013-10-30 15:01:00,84.5,69.1,30.09,NE,38,4.0,12.0,60,0.00,,FEW021,0.00,773.00,VWS V14.01,2013-10-30 19:01:00,
2013-10-30 15:06:00,84.3,68.4,30.10,NNE,28,12.0,17.0,59,0.00,,FEW021,0.00,773.00,VWS V14.01,2013-10-30 19:06:00,
2013-10-30 15:11:00,83.5,68.7,30.10,NE,41,8.0,8.0,61,0.00,,FEW021,0.00,197.00,VWS V14.01,2013-10-30 19:11:00,
2013-10-30 15:16:00,83.8,68.9,30.09,NNE,30,6.0,12.0,61,0.00,,FEW021,0.00,810.00,VWS V14.01,2013-10-30 19:16:00,
2013-10-30 15:21:00,83.6,68.3,30.09,NNE,19,7.0,16.0,60,0.00,,FEW021,0.00,791.00,VWS V14.01,2013-10-30 19:21:00,
2013-10-30 15:26:00,82.9,67.6,30.10,NE,41,11.0,12.0,60,0.00,,FEW021,0.00,749.00,VWS V14.01,2013-10-30 19:26:00,
2013-10-30 15:31:00,83.8,68.4,30.09,ESE,116,7.0,11.0,60,0.00,,FEW021,0.00,747.00,VWS V14.01,2013-10-30 19:31:00,
2013-10-30 15:36:00,83.9,68.5,30.09,NNE,32,8.0,12.0,60,0.00,,FEW021,0.00,225.00,VWS V14.01,2013-10-30 19:36:00,
2013-10-30 15:41:00,82.9,68.6,30.10,NE,51,8.0,12.0,62,0.00,,FEW021,0.00,167.00,VWS V14.01,2013-10-30 19:41:00,
2013-10-30 15:46:00,81.9,68.1,30.09,NNE,25,3.0,13.0,63,0.00,,FEW021,0.00,179.00,VWS V14.01,2013-10-30 19:46:00,
2013-10-30 15:51:00,81.6,68.2,30.09,ENE,71,10.0,13.0,64,0.00,,FEW021,0.00,125.00,VWS V14.01,2013-10-30 19:51:00,
2013-10-30 15:56:00,81.1,67.8,30.09,East,84,2.0,14.0,64,0.00,,FEW021,0.00,123.00,VWS V14.01,2013-10-30 19:56:00,
2013-10-30 16:01:00,82.1,68.7,30.09,East,85,11.0,12.0,64,0.00,,FEW021,0.00,631.00,VWS V14.01,2013-10-30 20:01:00,
2013-10-30 16:06:00,82.6,68.7,30.09,NE,37,11.0,14.0,63,0.00,,FEW021,0.00,636.00,VWS V14.01,2013-10-30 20:06:00,
2013-10-30 16:11:00,82.1,67.8,30.09,NNE,28,4.0,15.0,62,0.00,,FEW021,0.00,148.00,VWS V14.01,2013-10-30 20:11:00,
2013-10-30 16:16:00,81.6,67.8,30.09,ENE,73,5.0,12.0,63,0.00,,FEW021,0.00,195.00,VWS V14.01,2013-10-30 20:16:00,
2013-10-30 16:21:00,81.4,68.1,30.09,NNE,26,5.0,8.0,64,0.00,,FEW021,0.00,151.00,VWS V14.01,2013-10-30 20:21:00,
2013-10-30 16:26:00,81.1,67.8,30.10,NNE,29,8.0,11.0,64,0.00,,FEW021,0.00,125.00,VWS V14.01,2013-10-30 20:26:00,
2013-10-30 16:31:00,81.3,68.0,30.10,NE,49,11.0,14.0,64,0.00,,FEW021,0.00,545.00,VWS V14.01,2013-10-30 20:31:00,
2013-10-30 16:36:00,81.8,68.0,30.10,ENE,69,3.0,14.0,63,0.00,,FEW021,0.00,322.00,VWS V14.01,2013-10-30 20:36:00,
2013-10-30 16:41:00,82.2,68.4,30.09,NE,37,7.0,11.0,63,0.00,,FEW021,0.00,459.00,VWS V14.01,2013-10-30 20:41:00,
2013-10-30 16:46:00,82.0,68.2,30.09,NNE,30,7.0,13.0,63,0.00,,FEW021,0.00,148.00,VWS V14.01,2013-10-30 20:46:00,
2013-10-30 16:51:00,81.7,68.3,30.09,NE,47,3.0,11.0,64,0.00,,FEW021,0.00,146.00,VWS V14.01,2013-10-30 20:51:00,
2013-10-30 16:56:00,81.6,68.7,30.09,NE,44,11.0,11.0,65,0.00,,FEW021,0.00,359.00,VWS V14.01,2013-10-30 20:56:00,
2013-10-30 17:01:00,81.4,67.6,30.09,ENE,70,8.0,9.0,63,0.00,,FEW021,0.00,288.00,VWS V14.01,2013-10-30 21:01:00,
2013-10-30 17:06:00,81.2,68.3,30.09,NNE,25,5.0,9.0,65,0.00,,FEW021,0.00,341.00,VWS V14.01,2013-10-30 21:06:00,
2013-10-30 17:11:00,81.2,67.9,30.09,NNE,22,11.0,15.0,64,0.00,,FEW021,0.00,114.00,VWS V14.01,2013-10-30 21:11:00,
2013-10-30 17:16:00,81.2,67.9,30.09,ENE,71,7.0,8.0,64,0.00,,FEW021,0.00,74.00,VWS V14.01,2013-10-30 21:16:00,
2013-10-30 17:21:00,81.0,67.2,30.09,NE,49,6.0,13.0,63,0.00,,FEW021,0.00,267.00,VWS V14.01,2013-10-30 21:21:00,
2013-10-30 17:26:00,81.1,67.3,30.09,SE,131,4.0,10.0,63,0.00,,FEW021,0.00,258.00,VWS V14.01,2013-10-30 21:26:00,
2013-10-30 17:31:00,81.0,67.2,30.09,NE,42,4.0,15.0,63,0.00,,FEW021,0.00,163.00,VWS V14.01,2013-10-30 21:31:00,
2013-10-30 17:36:00,80.7,67.4,30.09,NE,44,7.0,9.0,64,0.00,,FEW021,0.00,62.00,VWS V14.01,2013-10-30 21:36:00,
2013-10-30 17:41:00,80.6,67.3,30.09,NNE,30,9.0,12.0,64,0.00,,FEW021,0.00,199.00,VWS V14.01,2013-10-30 21:41:00,
2013-10-30 17:46:00,80.4,67.1,30.09,NE,34,13.0,13.0,64,0.00,,FEW021,0.00,165.00,VWS V14.01,2013-10-30 21:46:00,
2013-10-30 17:51:00,80.3,67.5,30.08,NE,38,6.0,12.0,65,0.00,,FEW021,0.00,47.00,VWS V14.01,2013-10-30 21:51:00,
2013-10-30 17:56:00,80.0,67.2,30.09,NE,51,6.0,15.0,65,0.00,,FEW021,0.00,37.00,VWS V14.01,2013-10-30 21:56:00,
2013-10-30 18:01:00,79.9,67.5,30.09,NE,43,1.0,9.0,66,0.00,,FEW021,0.00,44.00,VWS V14.01,2013-10-30 22:01:00,
2013-10-30 18:05:00,79.8,67.9,30.09,NE,40,7.0,9.0,67,0.00,,FEW021,0.00,74.00,VWS V14.01,2013-10-30 22:05:00,
2013-10-30 18:11:00,79.8,67.9,30.09,NNE,32,6.0,10.0,67,0.00,,FEW021,0.00,42.00,VWS V14.01,2013-10-30 22:11:00,
2013-10-30 18:16:00,79.7,67.8,30.08,NE,42,5.0,11.0,67,0.00,,FEW021,0.00,37.00,VWS V14.01,2013-10-30 22:16:00,
2013-10-30 18:20:00,79.6,68.1,30.08,East,90,3.0,11.0,68,0.00,,FEW021,0.00,33.00,VWS V14.01,2013-10-30 22:20:00,
2013-10-30 18:25:00,79.6,68.5,30.08,NNE,19,5.0,6.0,69,0.00,,FEW021,0.00,18.00,VWS V14.01,2013-10-30 22:25:00,
2013-10-30 18:30:00,79.5,68.4,30.09,NNE,32,6.0,9.0,69,0.00,,FEW021,0.00,12.00,VWS V14.01,2013-10-30 22:30:00,
2013-10-30 18:35:00,79.4,68.3,30.09,NNE,30,7.0,9.0,69,0.00,,FEW021,0.00,7.00,VWS V14.01,2013-10-30 22:35:00,
2013-10-30 18:40:00,79.3,68.7,30.09,NE,41,6.0,10.0,70,0.00,,FEW021,0.00,5.00,VWS V14.01,2013-10-30 22:40:00,
2013-10-30 18:45:00,79.2,68.6,30.09,NE,40,3.0,6.0,70,0.00,,FEW021,0.00,0.00,VWS V14.01,2013-10-30 22:45:00,
2013-10-30 18:50:00,79.1,68.9,30.09,NE,38,3.0,11.0,71,0.00,,FEW021,0.00,0.00,VWS V14.01,2013-10-30 22:50:00,
2013-10-30 18:55:00,79.0,68.8,30.09,NNE,32,8.0,9.0,71,0.00,,FEW021,0.00,0.00,VWS V14.01,2013-10-30 22:55:00,
2013-10-30 19:00:00,78.9,68.7,30.09,NE,42,8.0,11.0,71,0.00,,FEW021,0.00,0.00,VWS V14.01,2013-10-30 23:00:00,
2013-10-30 19:05:00,78.8,68.6,30.09,NE,40,7.0,7.0,71,0.00,,FEW021,0.00,0.00,VWS V14.01,2013-10-30 23:05:00,
2013-10-30 19:10:00,78.7,68.5,30.09,NE,36,6.0,8.0,71,0.00,,FEW021,0.00,0.00,VWS V14.01,2013-10-30 23:10:00,
2013-10-30 19:15:00,78.6,68.8,30.09,NE,38,3.0,7.0,72,0.00,,FEW021,0.00,0.00,VWS V14.01,2013-10-30 23:15:00,
2013-10-30 19:20:00,78.6,68.8,30.09,NE,44,7.0,9.0,72,0.00,,FEW021,0.00,0.00,VWS V14.01,2013-10-30 23:20:00,
2013-10-30 19:25:00,78.6,68.8,30.10,NE,41,4.0,10.0,72,0.00,,FEW021,0.00,0.00,VWS V14.01,2013-10-30 23:25:00,
2013-10-30 19:30:00,78.7,68.9,30.10,NE,40,4.0,9.0,72,0.00,,FEW021,0.00,0.00,VWS V14.01,2013-10-30 23:30:00,
2013-10-30 19:35:00,78.9,69.5,30.10,NE,48,5.0,12.0,73,0.00,,FEW021,0.00,0.00,VWS V14.01,2013-10-30 23:35:00,
2013-10-30 19:40:00,78.8,69.4,30.10,NE,42,3.0,5.0,73,0.00,,FEW021,0.00,0.00,VWS V14.01,2013-10-30 23:40:00,
2013-10-30 19:45:00,78.7,69.7,30.10,NE,44,5.0,12.0,74,0.00,,FEW021,0.00,0.00,VWS V14.01,2013-10-30 23:45:00,
2013-10-30 19:50:00,78.7,69.7,30.10,NE,44,3.0,5.0,74,0.00,,FEW021,0.00,0.00,VWS V14.01,2013-10-30 23:50:00,
2013-10-30 19:55:00,78.6,69.6,30.10,East,83,2.0,5.0,74,0.00,,FEW021,0.00,0.00,VWS V14.01,2013-10-30 23:55:00,
2013-10-30 20:01:00,78.5,69.5,30.10,NE,49,4.0,10.0,74,0.00,,FEW021,0.00,0.00,VWS V14.01,2013-10-31 00:01:00,
2013-10-30 20:06:00,78.4,69.4,30.10,NE,40,9.0,14.0,74,0.00,,FEW021,0.00,0.00,VWS V14.01,2013-10-31 00:06:00,
2013-10-30 20:11:00,78.4,69.4,30.11,NE,46,4.0,8.0,74,0.00,,FEW021,0.00,0.00,VWS V14.01,2013-10-31 00:11:00,
2013-10-30 20:16:00,78.4,69.4,30.11,NNE,19,5.0,6.0,74,0.00,,FEW021,0.00,0.00,VWS V14.01,2013-10-31 00:16:00,
2013-10-30 20:21:00,78.4,69.4,30.11,ENE,69,4.0,4.0,74,0.00,,FEW021,0.00,0.00,VWS V14.01,2013-10-31 00:21:00,
2013-10-30 20:26:00,78.4,69.8,30.10,ENE,69,4.0,6.0,75,0.00,,FEW021,0.00,0.00,VWS V14.01,2013-10-31 00:26:00,
2013-10-30 20:31:00,78.4,69.4,30.10,NE,38,3.0,11.0,74,0.00,,FEW021,0.00,0.00,VWS V14.01,2013-10-31 00:31:00,
2013-10-30 20:36:00,78.4,69.4,30.11,NE,34,3.0,7.0,74,0.00,,FEW021,0.00,0.00,VWS V14.01,2013-10-31 00:36:00,
2013-10-30 20:41:00,78.3,69.3,30.11,NE,48,2.0,9.0,74,0.00,,FEW021,0.00,0.00,VWS V14.01,2013-10-31 00:41:00,
2013-10-30 20:46:00,78.3,69.3,30.11,NE,41,3.0,11.0,74,0.00,,FEW021,0.00,0.00,VWS V14.01,2013-10-31 00:46:00,
2013-10-30 20:51:00,78.3,68.9,30.11,ENE,73,3.0,10.0,73,0.00,,FEW021,0.00,0.00,VWS V14.01,2013-10-31 00:51:00,
2013-10-30 20:56:00,78.2,67.2,30.11,NE,39,6.0,11.0,69,0.00,,FEW021,0.00,0.00,VWS V14.01,2013-10-31 00:56:00,
2013-10-30 21:01:00,78.3,66.4,30.11,NE,44,3.0,8.0,67,0.00,,FEW021,0.00,0.00,VWS V14.01,2013-10-31 01:01:00,
2013-10-30 21:06:00,78.5,66.2,30.11,NE,42,4.0,13.0,66,0.00,,FEW021,0.00,0.00,VWS V14.01,2013-10-31 01:06:00,
2013-10-30 21:11:00,78.8,66.5,30.11,ENE,70,7.0,7.0,66,0.00,,FEW021,0.00,0.00,VWS V14.01,2013-10-31 01:11:00,
2013-10-30 21:16:00,79.0,67.1,30.12,NE,46,14.0,16.0,67,0.00,,FEW021,0.00,0.00,VWS V14.01,2013-10-31 01:16:00,
2013-10-30 21:21:00,79.0,66.7,30.11,East,88,3.0,10.0,66,0.00,,FEW021,0.00,0.00,VWS V14.01,2013-10-31 01:21:00,
2013-10-30 21:26:00,78.9,66.6,30.11,NE,45,2.0,7.0,66,0.00,,FEW021,0.00,0.00,VWS V14.01,2013-10-31 01:26:00,
2013-10-30 21:31:00,78.8,66.1,30.11,SE,132,5.0,10.0,65,0.00,,FEW021,0.00,0.00,VWS V14.01,2013-10-31 01:31:00,
2013-10-30 21:35:00,78.8,65.6,30.11,SE,132,4.0,6.0,64,0.00,,FEW021,0.00,0.00,VWS V14.01,2013-10-31 01:35:00,
2013-10-30 21:40:00,78.7,65.5,30.11,ENE,71,4.0,8.0,64,0.00,,FEW021,0.00,0.00,VWS V14.01,2013-10-31 01:40:00,
2013-10-30 21:45:00,78.7,65.5,30.11,East,96,5.0,5.0,64,0.00,,FEW021,0.00,0.00,VWS V14.01,2013-10-31 01:45:00,
2013-10-30 21:50:00,78.6,66.3,30.12,SE,132,2.0,9.0,66,0.00,,FEW021,0.00,0.00,VWS V14.01,2013-10-31 01:50:00,
2013-10-30 21:55:00,78.6,66.7,30.12,ENE,71,4.0,8.0,67,0.00,,FEW021,0.00,0.00,VWS V14.01,2013-10-31 01:55:00,
2013-10-30 22:00:00,78.6,67.2,30.12,NNE,26,2.0,5.0,68,0.00,,FEW021,0.00,0.00,VWS V14.01,2013-10-31 02:00:00,
2013-10-30 22:05:00,78.5,67.5,30.12,North,360,2.0,5.0,69,0.00,,FEW021,0.00,0.00,VWS V14.01,2013-10-31 02:05:00,
2013-10-30 22:10:00,78.5,67.9,30.12,East,86,2.0,5.0,70,0.00,,FEW021,0.00,0.00,VWS V14.01,2013-10-31 02:10:00,
2013-10-30 22:16:00,78.5,67.9,30.12,NE,43,6.0,7.0,70,0.00,,FEW021,0.00,0.00,VWS V14.01,2013-10-31 02:16:00,
2013-10-30 22:21:00,78.6,67.6,30.12,NE,34,5.0,7.0,69,0.00,,FEW021,0.00,0.00,VWS V14.01,2013-10-31 02:21:00,
2013-10-30 22:25:00,78.7,66.8,30.12,NE,36,4.0,5.0,67,0.00,,FEW021,0.00,0.00,VWS V14.01,2013-10-31 02:25:00,
2013-10-30 22:31:00,78.7,66.0,30.12,East,86,2.0,7.0,65,0.00,,FEW021,0.00,0.00,VWS V14.01,2013-10-31 02:31:00,
2013-10-30 22:36:00,78.7,66.0,30.12,East,87,3.0,7.0,65,0.00,,FEW021,0.00,0.00,VWS V14.01,2013-10-31 02:36:00,
2013-10-30 22:41:00,78.7,66.4,30.12,ENE,67,7.0,8.0,66,0.00,,FEW021,0.00,0.00,VWS V14.01,2013-10-31 02:41:00,
2013-10-30 22:46:00,78.8,66.5,30.12,ENE,71,5.0,5.0,66,0.00,,FEW021,0.00,0.00,VWS V14.01,2013-10-31 02:46:00,
2013-10-30 22:51:00,78.8,66.5,30.12,NNE,32,3.0,5.0,66,0.00,,FEW021,0.00,0.00,VWS V14.01,2013-10-31 02:51:00,
2013-10-30 22:55:00,78.9,66.6,30.12,ENE,69,3.0,8.0,66,0.00,,FEW021,0.00,0.00,VWS V14.01,2013-10-31 02:55:00,
2013-10-30 23:00:00,78.9,67.0,30.13,NE,52,3.0,9.0,67,0.00,,FEW021,0.00,0.00,VWS V14.01,2013-10-31 03:00:00,
2013-10-30 23:05:00,78.8,66.9,30.13,ENE,70,2.0,7.0,67,0.00,,FEW021,0.00,0.00,VWS V14.01,2013-10-31 03:05:00,
2013-10-30 23:10:00,78.7,67.3,30.12,SE,132,4.0,7.0,68,0.00,,FEW021,0.00,0.00,VWS V14.01,2013-10-31 03:10:00,
2013-10-30 23:15:00,78.6,67.2,30.12,East,97,3.0,6.0,68,0.00,,FEW021,0.00,0.00,VWS V14.01,2013-10-31 03:15:00,
2013-10-30 23:20:00,78.6,67.6,30.12,NE,39,4.0,5.0,69,0.00,,FEW021,0.00,0.00,VWS V14.01,2013-10-31 03:20:00,
2013-10-30 23:25:00,78.5,67.5,30.12,SSE,149,5.0,5.0,69,0.00,,FEW021,0.00,0.00,VWS V14.01,2013-10-31 03:25:00,
2013-10-30 23:30:00,78.4,67.4,30.11,ENE,69,1.0,8.0,69,0.00,,FEW021,0.00,0.00,VWS V14.01,2013-10-31 03:30:00,
2013-10-30 23:35:00,78.4,67.4,30.11,ENE,67,4.0,8.0,69,0.00,,FEW021,0.00,0.00,VWS V14.01,2013-10-31 03:35:00,
2013-10-30 23:40:00,78.5,67.5,30.11,ENE,71,4.0,7.0,69,0.00,,FEW021,0.00,0.00,VWS V14.01,2013-10-31 03:40:00,
2013-10-30 23:45:00,78.5,67.5,30.11,ENE,76,3.0,8.0,69,0.00,,FEW021,0.00,0.00,VWS V14.01,2013-10-31 03:45:00,
2013-10-30 23:50:00,78.5,67.9,30.11,SSE,157,2.0,5.0,70,0.00,,FEW021,0.00,0.00,VWS V14.01,2013-10-31 03:50:00,
2013-10-30 23:55:00,78.4,67.8,30.11,East,96,3.0,8.0,70,0.00,,FEW021,0.00,0.00,VWS V14.01,2013-10-31 03:55:00,